TimeCDT,TemperatureF,Dew PointF,Humidity,Sea Level PressureIn,VisibilityMPH,Wind Direction,Wind SpeedMPH,Gust SpeedMPH,PrecipitationIn,Events,Conditions,WindDirDegrees,DateUTC
12:15 AM,50.0,43.2,77,30.18,10.0,East,3.5,-,N/A,,Clear,80,2012-09-28 05:15:00
12:35 AM,49.6,43.2,78,30.19,10.0,Calm,Calm,-,N/A,,Clear,0,2012-09-28 05:35:00
12:55 AM,47.1,43.2,86,30.18,10.0,Calm,Calm,-,N/A,,Clear,0,2012-09-28 05:55:00
1:15 AM,48.7,43.3,82,30.18,10.0,Calm,Calm,-,N/A,,Clear,0,2012-09-28 06:15:00
1:35 AM,45.7,41.0,84,30.18,10.0,NE,3.5,-,N/A,,Clear,40,2012-09-28 06:35:00
1:55 AM,44.1,40.3,87,30.18,10.0,NE,3.5,-,N/A,,Clear,40,2012-09-28 06:55:00
2:15 AM,43.2,40.1,89,30.18,10.0,Calm,Calm,-,N/A,,Clear,0,2012-09-28 07:15:00
2:35 AM,43.5,40.8,90,30.17,10.0,Calm,Calm,-,N/A,,Clear,0,2012-09-28 07:35:00
2:55 AM,43.2,41.2,93,30.17,10.0,Calm,Calm,-,N/A,,Clear,0,2012-09-28 07:55:00
3:15 AM,42.1,39.6,91,30.16,10.0,Calm,Calm,-,N/A,,Clear,0,2012-09-28 08:15:00
3:35 AM,42.8,40.1,90,30.17,10.0,Calm,Calm,-,N/A,,Clear,0,2012-09-28 08:35:00
3:55 AM,42.1,39.9,92,30.17,10.0,Calm,Calm,-,N/A,,Clear,0,2012-09-28 08:55:00
4:15 AM,41.7,39.9,93,30.18,10.0,Calm,Calm,-,N/A,,Clear,0,2012-09-28 09:15:00
4:35 AM,41.0,39.2,93,30.18,10.0,Calm,Calm,-,N/A,,Clear,0,2012-09-28 09:35:00
4:55 AM,39.7,38.7,96,30.18,10.0,Calm,Calm,-,N/A,,Clear,0,2012-09-28 09:55:00
5:15 AM,38.5,37.8,97,30.18,7.0,Calm,Calm,-,N/A,,Clear,0,2012-09-28 10:15:00
5:35 AM,38.7,37.9,97,30.18,10.0,Calm,Calm,-,N/A,,Clear,0,2012-09-28 10:35:00
5:55 AM,37.4,36.0,95,30.18,10.0,Calm,Calm,-,N/A,,Clear,0,2012-09-28 10:55:00
6:15 AM,36.3,35.6,97,30.19,7.0,Calm,Calm,-,N/A,,Clear,0,2012-09-28 11:15:00
6:35 AM,36.0,35.2,97,30.18,3.0,Calm,Calm,-,N/A,,Scattered Clouds,0,2012-09-28 11:35:00
6:55 AM,35.2,34.9,99,30.19,4.0,Calm,Calm,-,N/A,,Clear,0,2012-09-28 11:55:00
7:15 AM,37.2,36.0,95,30.19,10.0,Calm,Calm,-,N/A,,Clear,0,2012-09-28 12:15:00
7:35 AM,38.7,37.2,95,30.20,7.0,Calm,Calm,-,N/A,,Clear,0,2012-09-28 12:35:00
7:55 AM,39.7,39.0,97,30.21,5.0,Calm,Calm,-,N/A,,Clear,0,2012-09-28 12:55:00
8:15 AM,44.6,42.6,93,30.21,7.0,Calm,Calm,-,N/A,,Clear,0,2012-09-28 13:15:00
8:35 AM,48.4,45.1,89,30.21,10.0,North,4.6,-,N/A,,Clear,10,2012-09-28 13:35:00
8:55 AM,52.9,46.6,79,30.22,10.0,North,5.8,-,N/A,,Clear,10,2012-09-28 13:55:00
9:15 AM,56.5,46.0,68,30.22,10.0,NNE,5.8,-,N/A,,Clear,30,2012-09-28 14:15:00
9:35 AM,57.7,45.1,63,30.23,10.0,NNE,8.1,-,N/A,,Clear,20,2012-09-28 14:35:00
9:55 AM,59.2,44.4,58,30.23,10.0,NNE,10.4,-,N/A,,Clear,20,2012-09-28 14:55:00
10:15 AM,59.9,44.4,57,30.22,10.0,NNE,10.4,-,N/A,,Clear,30,2012-09-28 15:15:00
10:35 AM,60.8,44.6,55,30.22,10.0,NNE,9.2,-,N/A,,Clear,20,2012-09-28 15:35:00
10:55 AM,62.2,43.7,51,30.22,10.0,NNE,11.5,-,N/A,,Clear,30,2012-09-28 15:55:00
11:15 AM,63.0,43.2,48,30.22,10.0,NNE,11.5,-,N/A,,Clear,30,2012-09-28 16:15:00
11:35 AM,64.2,43.0,46,30.23,10.0,North,11.5,-,N/A,,Clear,360,2012-09-28 16:35:00
11:55 AM,64.4,42.3,44,30.22,10.0,North,9.2,19.6,N/A,,Clear,10,2012-09-28 16:55:00
12:15 PM,64.6,41.4,43,30.22,10.0,North,10.4,17.3,N/A,,Clear,360,2012-09-28 17:15:00
12:35 PM,65.5,40.6,40,30.21,10.0,NNE,11.5,-,N/A,,Clear,20,2012-09-28 17:35:00
12:55 PM,66.2,41.4,40,30.19,10.0,NE,12.7,16.1,N/A,,Clear,40,2012-09-28 17:55:00
1:15 PM,66.4,40.5,39,30.19,10.0,NE,9.2,-,N/A,,Clear,40,2012-09-28 18:15:00
1:35 PM,66.7,39.9,37,30.17,10.0,NNE,10.4,-,N/A,,Clear,20,2012-09-28 18:35:00
1:55 PM,67.6,41.2,38,30.16,10.0,NE,9.2,-,N/A,,Clear,50,2012-09-28 18:55:00
2:15 PM,67.6,40.6,37,30.16,10.0,NE,8.1,-,N/A,,Clear,50,2012-09-28 19:15:00
2:35 PM,68.5,41.2,37,30.16,10.0,East,3.5,-,N/A,,Clear,90,2012-09-28 19:35:00
2:55 PM,68.7,41.4,37,30.15,10.0,NNE,8.1,-,N/A,,Clear,20,2012-09-28 19:55:00
3:15 PM,68.7,39.7,35,30.15,10.0,North,3.5,-,N/A,,Clear,350,2012-09-28 20:15:00
3:35 PM,68.5,40.5,36,30.14,10.0,North,5.8,-,N/A,,Clear,360,2012-09-28 20:35:00
3:55 PM,68.5,39.6,35,30.13,10.0,North,9.2,-,N/A,,Clear,360,2012-09-28 20:55:00
4:15 PM,68.5,40.5,36,30.13,10.0,NNW,3.5,-,N/A,,Clear,330,2012-09-28 21:15:00
4:35 PM,68.0,40.3,36,30.13,10.0,NNW,3.5,-,N/A,,Clear,340,2012-09-28 21:35:00
4:55 PM,67.1,40.8,38,30.13,10.0,NNE,6.9,-,N/A,,Clear,20,2012-09-28 21:55:00
5:15 PM,65.3,41.9,42,30.12,10.0,North,9.2,-,N/A,,Clear,360,2012-09-28 22:15:00
5:35 PM,63.9,43.7,48,30.13,10.0,North,4.6,-,N/A,,Clear,360,2012-09-28 22:35:00
5:55 PM,65.3,40.1,40,30.13,10.0,Calm,Calm,-,N/A,,Clear,0,2012-09-28 22:55:00
6:15 PM,63.1,43.3,48,30.13,10.0,Calm,Calm,-,N/A,,Clear,0,2012-09-28 23:15:00
6:35 PM,61.7,41.2,47,30.13,10.0,NW,4.6,-,N/A,,Clear,310,2012-09-28 23:35:00
6:55 PM,60.6,40.3,47,30.13,10.0,NW,3.5,-,N/A,,Clear,320,2012-09-28 23:55:00
7:15 PM,56.8,41.4,56,30.13,10.0,Calm,Calm,-,N/A,,Clear,0,2012-09-29 00:15:00
7:35 PM,54.9,41.9,62,30.13,10.0,Calm,Calm,-,N/A,,Clear,0,2012-09-29 00:35:00
7:55 PM,52.9,43.9,71,30.13,10.0,Calm,Calm,-,N/A,,Clear,0,2012-09-29 00:55:00
8:15 PM,51.8,43.3,73,30.13,10.0,Calm,Calm,-,N/A,,Clear,0,2012-09-29 01:15:00
8:35 PM,50.2,42.3,74,30.13,10.0,Calm,Calm,-,N/A,,Clear,0,2012-09-29 01:35:00
8:55 PM,49.3,42.8,78,30.14,10.0,Calm,Calm,-,N/A,,Clear,0,2012-09-29 01:55:00
9:15 PM,49.6,40.5,71,30.14,10.0,Calm,Calm,-,N/A,,Clear,0,2012-09-29 02:15:00
9:35 PM,48.0,39.7,73,30.14,10.0,Calm,Calm,-,N/A,,Clear,0,2012-09-29 02:35:00
9:55 PM,47.8,39.7,74,30.14,10.0,Calm,Calm,-,N/A,,Clear,0,2012-09-29 02:55:00
10:15 PM,47.5,40.1,76,30.14,10.0,Calm,Calm,-,N/A,,Clear,0,2012-09-29 03:15:00
10:35 PM,47.5,39.4,73,30.14,10.0,Calm,Calm,-,N/A,,Clear,0,2012-09-29 03:35:00
10:55 PM,47.3,39.6,74,30.14,10.0,Calm,Calm,-,N/A,,Clear,0,2012-09-29 03:55:00
11:15 PM,45.7,39.4,79,30.15,10.0,Calm,Calm,-,N/A,,Clear,0,2012-09-29 04:15:00
11:35 PM,44.6,39.2,81,30.14,10.0,Calm,Calm,-,N/A,,Clear,0,2012-09-29 04:35:00
11:55 PM,44.6,39.4,82,30.14,10.0,Calm,Calm,-,N/A,,Clear,0,2012-09-29 04:55:00